Flag for U.S.A. Weather past 2 weeks in Memphis, Tennessee, U.S.A.

63 °F

Passing clouds.

Feels Like: 63 °F
Forecast: 55 / 68 °F
Wind: 12 mph from South

Location: Memphis International Airport

Current Time: Nov 25, 2015 at 9:22:59 PM

Latest Report: Nov 25, 2015 at 8:54 PM

Visibility: 10 mi

Pressure: 30.30 "Hg

Humidity: 56%

Dew point: 47 °F

Location of MemphisLocation

Historic Weather in Memphis — Graph


Memphis temperature yesterday

Maximum temperature yesterday: 62 °F (at 1:54 PM)
Minimum temperature yesterday: 38 °F (at 2:54 AM)
Average temperature yesterday: 50 °F

Past Weeks' High & Low Weather Summary

High76 °F (Nov 11, 1:54 PM)97% (Nov 17, 9:54 PM)30.45 "Hg (Nov 17, 9:54 PM)
Low29 °F (Nov 22, 10:54 PM)22% (Nov 20, 12:54 PM)29.59 "Hg (Nov 17, 5:54 PM)
Average54 °F59%30.14 "Hg
* Reported Nov 10 7:54 PM — Nov 25 7:54 PM, Memphis, Weather by CustomWeather, © 2015

Note: Actual official high and low records may vary slightly from our data, if they occured in-between our weather recording intervals... More about our weather records


Memphis weather history for previous 24 hours

Time TempWeatherWind HumidityBarometerVisibility
7:54 PM
Wed, Nov 25
61 °FPassing clouds.10 mph58%30.29 "Hg10 mi
6:54 PM62 °FPassing clouds.10 mph58%30.28 "Hg10 mi
5:54 PM63 °FPassing clouds.10 mph56%30.28 "Hg10 mi
4:54 PM65 °FPassing clouds.10 mph54%30.26 "Hg10 mi
3:54 PM67 °FPassing clouds.10 mph49%30.24 "Hg10 mi
2:54 PM68 °FScattered clouds.10 mph47%30.24 "Hg10 mi
1:54 PM68 °FScattered clouds.10 mph45%30.25 "Hg10 mi
12:54 PM67 °FPassing clouds.12 mph41%30.28 "Hg10 mi
11:54 AM63 °FScattered clouds.10 mph43%30.30 "Hg10 mi
10:54 AM59 °FPassing clouds.8 mph46%30.33 "Hg10 mi
9:54 AM56 °FScattered clouds.9 mph47%30.34 "Hg10 mi
8:54 AM52 °FPassing clouds.13 mph50%30.34 "Hg10 mi
7:54 AM48 °FPassing clouds.8 mph54%30.31 "Hg10 mi
6:54 AM45 °FPassing clouds.10 mph58%30.29 "Hg10 mi
5:54 AM45 °FPassing clouds.8 mph58%30.28 "Hg10 mi
4:54 AM45 °FPassing clouds.8 mph56%30.28 "Hg10 mi
3:54 AM47 °FPassing clouds.12 mph52%30.26 "Hg10 mi
2:54 AM46 °FPassing clouds.8 mph54%30.26 "Hg10 mi
1:54 AM46 °FPassing clouds.7 mph56%30.26 "Hg10 mi
12:54 AM48 °FPassing clouds.5 mph52%30.26 "Hg10 mi
11:54 PM
Tue, Nov 24
49 °FClear.7 mph50%30.27 "Hg10 mi
10:54 PM50 °FPassing clouds.6 mph48%30.28 "Hg10 mi
9:54 PM51 °FPassing clouds.7 mph46%30.27 "Hg10 mi
Weather by CustomWeather, © 2015

See weather overviewHow to use our weather pages